EHI
0 0 0 0 0 0 0 0 0 0 0 0 0 1 2 2 3 5 8 11 13 15 21 34 42 38 28 21 17 17 17 13 6 5 8 11 11 10 9 8 7 7 7 7 7 5 4 4 3
0 0 0 0 0 0 0 0 0 0 0 0 1 2 3 3 5 7 11 13 14 14 19 32 42 38 29 21 17 16 16 12 7 5 7 9 9 9 8 7 7 6 6 6 5 3 3 4 4
0 0 0 0 0 0 0 0 0 0 0 1 2 4 5 4 5 9 13 16 14 12 18 30 40 40 32 23 17 14 13 9 6 5 6 7 7 6 5 5 5 5 4 3 2 2 2 4 5
0 0 0 0 0 0 0 0 0 1 1 2 4 6 5 5 8 12 15 15 13 12 19 29 37 39 34 25 18 14 9 5 3 3 4 5 5 4 4 4 5 4 3 2 2 2 1 3 4
0 0 0 0 0 0 0 0 1 2 2 3 5 6 5 6 12 17 16 14 11 12 19 28 34 37 34 27 21 15 9 4 2 2 3 4 4 4 4 5 5 5 4 4 4 4 3 3 4
0 0 0 0 0 0 0 0 1 2 1 3 6 6 4 7 14 16 15 12 11 13 19 26 31 33 32 28 22 17 12 6 2 1 2 2 2 3 4 4 4 6 6 6 6 6 6 6 6
0 0 0 0 0 0 0 0 1 2 2 4 8 7 4 6 11 15 16 15 12 13 18 23 26 27 27 25 21 17 13 6 2 2 2 2 1 1 2 3 3 4 5 6 6 6 7 8 8
0 0 0 0 0 0 0 0 2 3 4 6 9 8 4 6 13 20 23 20 15 13 16 20 22 21 19 17 16 14 11 6 2 3 4 3 1 0 1 2 2 2 3 4 4 4 5 7 7
0 0 0 0 0 0 0 0 2 5 7 9 12 11 9 11 17 24 27 23 17 12 13 16 18 15 12 12 11 10 8 5 3 3 3 3 1 0 0 1 1 2 3 3 3 3 3 4 5
0 0 0 0 0 0 0 0 2 5 9 13 17 17 16 17 20 25 27 24 18 13 10 11 12 11 10 9 9 7 6 3 2 1 1 1 0 0 0 0 1 2 3 3 3 3 3 2 3
0 0 0 0 0 0 0 0 1 4 9 15 21 23 21 20 21 24 25 24 20 15 12 9 8 8 8 7 7 6 4 3 1 0 0 0 0 0 0 0 0 1 2 3 4 4 4 3 2
0 0 0 0 0 0 0 0 1 4 9 16 22 23 22 21 22 23 23 24 23 19 13 9 7 6 5 5 4 3 3 2 2 1 0 0 0 0 0 0 0 0 1 2 4 4 4 3 2
0 0 0 0 0 0 0 1 3 7 13 20 24 21 19 18 17 18 20 24 24 19 12 9 7 5 4 4 4 3 2 1 1 1 0 0 0 0 0 0 0 0 0 1 2 3 2 2 1
0 0 0 0 0 0 0 1 4 10 17 23 24 19 15 13 11 13 17 21 20 15 10 9 8 5 4 5 6 5 3 1 1 0 0 0 0 0 0 0 0 1 1 1 1 2 2 2 2
0 0 0 0 0 0 0 1 5 12 19 21 20 16 11 8 8 11 15 17 16 13 11 10 11 9 7 7 8 7 6 4 2 0 0 0 0 0 1 1 1 2 2 2 3 3 3 3 3
0 0 0 0 0 0 1 2 6 12 17 17 14 12 8 6 6 10 14 15 15 15 14 14 15 15 13 10 9 9 8 6 5 2 0 0 0 1 2 2 3 3 3 3 3 3 3 3 3
0 0 0 0 0 0 1 2 5 10 14 13 11 9 8 6 6 11 15 16 17 19 19 18 19 19 18 15 13 12 11 9 7 4 2 1 2 3 4 3 3 3 3 3 3 3 3 3 2
0 0 0 0 0 0 1 3 4 7 9 10 9 9 10 9 9 12 16 19 21 22 22 22 21 21 22 21 18 16 15 12 9 7 4 3 5 6 5 4 3 4 4 4 3 3 3 2 2
0 0 0 0 0 1 2 3 3 4 6 8 8 10 12 13 13 15 18 22 25 25 25 26 24 24 25 25 21 19 18 16 14 10 7 7 7 8 7 5 5 5 5 4 2 2 2 1 1
0 0 0 0 1 2 3 3 1 1 4 7 9 10 13 15 18 19 22 26 29 28 28 29 28 28 29 27 23 20 19 18 16 13 11 10 10 9 9 8 6 6 6 3 1 1 1 0 0
0 0 0 0 1 2 3 2 1 0 2 4 7 10 12 15 20 22 25 30 32 30 30 30 29 29 29 28 25 22 20 19 17 15 14 12 11 10 10 9 6 5 5 4 2 1 1 1 0
0 0 0 0 0 1 2 1 0 0 1 2 4 7 10 15 20 24 28 32 33 32 31 31 29 27 27 27 26 24 22 19 17 16 14 12 11 10 9 7 5 3 4 5 4 2 2 2 1
0 0 0 0 0 0 0 0 0 0 0 1 2 5 9 14 20 26 32 35 34 33 34 33 30 27 26 25 25 25 23 20 16 14 13 11 10 9 8 6 4 3 3 4 3 3 3 3 2
0 0 0 0 0 0 0 0 0 0 1 2 4 6 10 15 21 28 33 36 35 34 34 34 31 28 25 23 23 23 23 20 17 14 11 10 10 9 8 6 4 3 3 3 3 3 3 3 2
0 0 0 0 0 0 0 0 0 1 2 4 6 8 10 15 22 27 31 35 36 35 33 31 30 28 24 22 21 20 20 18 16 13 11 10 10 9 8 6 4 3 3 3 3 3 3 2 1
0 0 0 0 0 0 0 1 1 2 4 5 7 8 9 14 20 25 27 30 32 33 31 28 27 26 23 22 21 19 17 15 13 12 11 10 9 9 9 6 3 2 2 2 2 2 2 1 0
0 0 0 0 0 0 1 2 3 4 5 7 8 8 10 13 17 21 21 23 26 27 27 25 24 22 20 19 18 17 13 11 10 10 10 9 7 7 7 5 2 1 1 1 1 1 1 0 0
0 0 0 0 0 0 1 2 3 4 6 8 9 9 9 11 13 14 16 17 20 21 21 21 20 18 16 15 14 12 10 8 7 8 8 8 6 5 4 2 1 0 0 0 0 0 0 0 0
0 0 0 0 0 0 0 1 3 5 7 8 8 8 7 7 8 9 12 14 15 15 15 16 16 14 12 11 10 9 8 7 6 6 7 7 6 5 4 2 1 0 0 0 0 0 0 0 0
0 0 0 0 0 0 0 1 3 6 8 8 7 7 6 5 5 7 9 11 11 11 11 13 14 13 11 9 9 8 7 6 6 6 8 8 7 6 4 3 2 1 0 0 0 0 0 0 0
Wind_Speed
4 3 1 2 4 4 2 3 1 2 3 3 6 9 8 4 4 4 3 11 13 12 9 12 14 14 14 13 13 13 13 13 12 12 12 12 11 11 11 11 10 10 10 10 9 9 9 9 10
3 3 2 3 4 2 4 3 0 1 2 5 6 8 7 4 5 8 6 11 14 13 9 10 14 14 14 13 13 13 13 13 12 11 11 11 11 10 10 10 9 9 8 8 8 8 8 8 8
2 2 3 4 2 3 4 3 2 2 0 3 4 4 4 6 7 7 9 15 12 11 9 11 15 14 14 13 13 13 13 12 12 11 11 10 10 9 9 9 8 8 8 7 7 7 7 7 7
2 3 3 3 1 5 5 5 1 2 2 3 5 5 3 4 6 9 15 15 14 10 9 11 15 14 14 13 12 12 12 12 12 11 11 10 9 8 8 8 8 7 7 7 7 7 6 6 7
3 4 3 1 3 5 5 6 4 3 0 2 5 5 3 3 11 15 15 15 14 10 8 10 14 14 14 13 12 12 12 12 11 11 10 10 9 8 8 8 8 7 6 6 6 6 5 5 5
3 4 2 2 4 4 4 2 2 3 2 3 6 5 2 6 12 14 14 13 14 13 9 9 14 15 14 13 12 12 12 11 11 10 10 9 8 7 7 7 7 7 6 6 5 5 5 5 4
3 3 2 3 3 4 5 2 3 2 3 3 6 5 3 5 10 12 12 12 12 11 10 8 8 10 13 13 12 12 11 11 10 9 9 9 8 7 7 6 6 6 6 6 5 5 5 4 4
5 3 1 2 3 5 4 1 1 3 3 4 5 8 6 8 9 11 11 10 10 9 9 8 7 6 6 7 12 12 11 11 10 9 9 9 8 8 7 6 6 6 6 6 5 5 5 4 4
3 3 4 5 4 5 4 1 2 1 3 2 2 5 8 11 12 12 11 8 8 8 7 7 7 6 6 6 9 9 10 9 9 8 9 7 4 4 4 6 7 7 6 6 6 5 5 4 4
4 4 9 7 6 4 5 3 3 2 3 3 3 5 11 11 12 13 12 11 10 9 8 7 7 7 6 6 5 4 4 4 4 4 4 3 3 3 4 5 7 6 6 6 6 5 4 3 2
4 7 7 7 8 5 4 5 2 5 3 6 9 11 12 10 10 11 11 11 11 10 9 8 8 7 6 4 4 3 2 3 3 4 4 3 2 2 2 1 2 3 4 2 2 2 1 1 2
4 7 6 6 7 4 5 4 2 4 7 9 13 15 12 11 10 11 11 10 10 10 9 8 8 7 6 5 4 3 3 3 3 3 4 3 2 2 2 2 2 2 1 2 1 1 2 2 2
5 6 7 6 6 5 3 3 3 3 6 8 13 13 13 12 9 8 10 10 10 9 8 8 8 8 6 5 4 4 3 4 4 3 4 4 3 3 3 2 2 2 2 2 2 2 2 2 2
6 6 6 7 7 5 3 4 2 4 8 10 13 13 12 11 11 9 9 9 10 9 9 7 8 8 7 5 4 4 4 4 4 4 5 5 4 3 3 2 2 2 2 3 3 3 2 2 2
3 5 8 7 5 4 1 4 4 6 10 11 11 11 11 9 10 10 10 10 11 10 9 8 8 7 7 6 5 4 4 4 4 4 5 5 4 4 3 2 2 2 3 3 2 2 2 2 1
5 4 5 8 4 4 4 6 6 7 11 11 10 11 10 8 9 10 10 9 10 10 9 9 8 8 6 5 4 3 3 4 3 3 3 4 4 4 3 2 3 3 2 2 2 2 2 1 1
3 3 7 9 5 2 3 6 7 8 10 10 10 10 10 8 7 8 9 10 10 10 10 8 7 8 7 5 4 3 3 3 3 3 3 4 4 4 3 3 2 3 2 2 2 2 2 2 1
6 5 6 8 7 2 3 6 6 7 8 10 9 9 10 11 10 10 10 10 10 10 9 8 8 7 6 4 3 2 2 2 2 3 3 4 3 4 3 2 3 3 2 2 1 2 1 2 2
7 7 9 11 9 3 5 7 6 6 6 8 8 9 10 10 8 9 10 10 9 9 9 8 8 7 6 4 3 3 3 2 2 2 3 4 4 3 3 3 3 3 3 3 3 2 2 1 1
8 9 9 9 8 3 4 6 5 5 8 10 10 10 9 7 6 7 8 9 9 9 9 8 8 8 7 5 4 3 3 2 2 2 2 3 3 3 3 4 3 3 2 2 2 2 2 1 2
10 9 9 8 5 3 1 5 6 4 3 5 8 9 9 11 11 10 10 10 10 10 11 9 8 8 7 5 3 2 2 1 1 1 2 3 3 4 3 4 4 3 3 3 3 3 4 2 1
10 10 8 6 3 5 2 4 8 4 3 3 5 7 9 10 9 9 10 11 11 11 9 8 7 7 6 6 5 5 4 3 3 3 2 3 3 3 3 4 4 4 4 4 4 4 3 4 2
9 7 5 5 3 3 2 2 8 3 4 5 6 7 8 8 9 9 10 10 9 9 8 7 7 6 5 6 7 6 4 3 2 2 3 3 3 3 3 3 4 4 4 4 4 3 3 3 3
6 3 4 2 3 3 6 4 7 4 6 5 5 5 6 7 7 8 8 8 7 7 7 7 7 5 5 6 6 6 5 4 4 3 3 3 2 2 3 3 4 4 4 4 4 4 4 4 4
1 2 3 5 3 7 4 3 7 5 4 5 4 5 6 7 7 7 7 7 8 8 8 7 7 6 6 5 5 5 6 6 6 5 4 4 2 2 3 3 4 4 4 4 4 4 4 4 4
4 7 6 5 6 6 3 4 7 4 2 2 3 3 4 5 5 6 7 8 8 9 9 8 8 7 6 6 5 4 5 4 4 4 4 4 4 4 4 4 4 4 4 4 4 3 4 4 5
3 4 7 6 3 2 4 5 5 0 1 1 3 3 4 5 5 6 6 7 7 8 8 9 8 6 6 6 5 4 4 4 4 3 3 3 3 3 4 4 4 4 4 4 4 4 4 4 5
5 5 4 4 3 4 4 5 6 5 4 2 2 3 4 5 6 6 6 6 6 5 5 6 7 6 5 5 4 4 3 4 3 3 3 3 3 2 3 3 3 4 4 4 4 4 4 5 5
1 0 3 3 5 5 4 8 6 9 8 7 6 6 5 5 7 7 6 5 5 5 4 5 4 4 4 4 4 3 3 3 3 3 3 3 3 3 3 3 3 3 4 4 4 5 5 5 5
4 4 5 4 3 4 4 9 5 6 6 6 6 5 5 6 7 7 7 6 5 5 5 5 5 4 4 4 3 3 3 2 3 3 3 3 3 3 3 2 3 3 3 3 4 5 5 5 6
Wind_Direction
175 176 154 65 49 43 310 277 193 352 24 66 89 94 96 94 129 150 148 140 140 144 149 145 140 135 132 130 127 125 124 122 120 119 118 118 118 117 116 115 114 113 115 118 119 118 115 113 111
170 172 85 56 73 32 293 271 328 332 133 110 86 92 89 79 93 114 124 144 143 145 147 145 141 138 136 134 132 130 129 128 125 123 123 124 123 122 122 120 119 118 117 120 125 127 123 119 117
201 168 92 71 84 188 252 274 271 307 184 111 92 73 98 121 122 137 147 145 139 140 144 147 143 141 139 137 136 135 134 132 131 130 129 129 128 127 127 126 125 124 124 125 129 132 130 127 123
119 62 56 73 275 243 231 261 268 308 357 64 102 82 84 118 136 139 139 141 136 137 142 148 145 143 141 139 138 139 140 138 138 137 135 133 132 133 135 134 133 133 131 130 131 132 132 131 130
81 82 53 354 246 253 249 244 231 241 261 70 96 95 73 67 118 131 140 140 138 140 145 149 146 145 143 141 141 143 144 144 143 143 142 140 139 139 139 139 140 142 141 141 141 141 141 140 139
62 74 78 271 269 272 273 250 195 182 129 99 97 101 107 130 129 140 142 142 143 145 148 150 150 148 147 146 146 146 147 148 148 149 149 148 147 144 144 146 150 150 149 152 157 158 156 156 157
123 109 198 234 268 281 267 232 177 167 157 150 128 110 137 154 146 144 141 138 141 145 148 151 152 151 152 153 152 151 151 152 154 154 155 157 156 157 157 157 161 164 163 164 171 181 181 181 180
156 114 276 270 273 271 270 309 198 188 179 146 127 140 167 181 147 136 131 132 138 145 152 153 150 146 150 154 156 155 156 159 160 160 160 163 163 166 170 169 177 179 177 181 186 194 203 206 202
125 98 236 229 216 251 269 307 270 218 128 112 112 156 162 152 134 131 132 131 141 148 154 152 151 150 150 153 159 158 160 163 164 164 165 164 163 169 177 187 191 192 193 197 199 204 217 226 228
134 185 230 224 211 227 261 240 222 130 103 87 89 112 135 143 140 143 151 154 158 161 162 157 153 152 150 156 148 151 157 161 162 161 165 158 163 182 187 198 200 202 204 206 207 213 223 237 248
194 213 236 246 240 237 250 261 222 139 174 179 162 157 154 154 152 153 159 162 164 163 161 160 159 157 156 152 149 151 149 157 166 171 171 161 159 177 189 188 207 208 209 213 218 232 235 242 239
238 250 234 246 253 242 231 225 217 189 201 179 161 158 156 157 162 162 162 164 157 157 162 162 162 161 162 155 159 163 161 166 176 183 173 162 162 173 179 183 190 189 192 200 212 224 231 239 236
265 265 261 254 263 252 248 234 209 207 187 162 150 153 163 167 167 166 162 158 151 154 160 163 163 163 162 155 165 165 171 178 181 183 186 175 174 182 183 188 191 194 189 194 210 221 226 237 237
255 274 278 273 270 270 241 254 204 221 168 158 158 165 171 171 168 163 154 155 156 159 164 162 162 162 160 164 169 172 179 182 178 187 192 182 181 181 177 184 199 203 201 202 201 201 207 224 216
293 307 302 275 249 250 219 295 238 190 159 162 169 172 172 172 164 161 162 164 163 162 162 162 163 157 157 163 167 169 175 175 179 187 188 182 179 181 180 183 197 205 201 199 198 202 194 208 216
340 328 295 282 261 256 149 248 250 182 164 175 180 177 173 178 170 166 163 163 163 160 160 164 163 159 160 162 161 164 165 169 179 180 182 184 179 174 173 180 195 194 180 176 182 190 194 203 202
338 275 271 287 277 261 157 234 244 197 171 181 186 182 177 177 180 176 169 165 164 162 162 162 159 164 165 159 157 163 160 168 174 174 178 184 182 173 168 181 186 174 167 178 191 179 180 183 205
249 256 268 272 281 308 263 245 242 214 185 188 188 182 178 182 191 183 173 171 168 163 164 164 161 163 159 149 135 133 139 164 171 179 184 178 181 177 169 171 172 164 161 175 173 178 182 178 195
237 251 264 270 270 285 267 261 251 223 192 189 190 184 185 191 195 178 174 171 166 163 162 170 163 165 158 155 158 160 178 183 183 194 186 178 182 180 170 171 173 169 168 182 179 170 171 195 160
243 253 267 278 272 260 256 268 261 220 197 192 188 188 189 184 183 177 175 172 173 171 169 173 170 169 171 173 173 173 173 184 188 190 184 182 182 185 186 179 175 173 169 176 174 163 161 203 162
246 233 240 249 282 315 303 295 280 275 227 194 187 186 184 184 182 178 181 181 176 176 176 179 178 174 174 164 140 120 96 79 101 193 195 204 191 187 187 181 174 175 177 189 190 177 169 189 205
249 239 227 238 261 273 220 276 281 268 262 230 214 204 195 191 180 177 179 179 182 184 179 174 173 172 171 160 158 162 173 188 202 196 199 215 205 198 192 186 181 181 184 188 196 182 175 169 189
240 246 232 235 233 287 289 220 273 270 252 244 225 214 196 188 179 177 180 179 180 175 169 168 166 168 168 169 172 175 183 195 190 181 192 210 220 214 202 193 186 190 191 191 192 184 183 177 181
241 313 332 6 69 277 252 206 263 245 228 235 234 213 187 174 176 177 172 163 165 165 162 158 158 168 171 173 176 179 181 184 182 193 199 209 217 223 219 203 195 194 194 195 195 193 189 190 190
249 82 357 337 334 256 258 217 246 244 219 212 216 197 179 160 167 167 161 160 164 165 168 164 164 172 175 175 181 185 185 187 193 200 201 204 208 221 227 216 208 201 202 202 196 195 198 195 198
231 160 174 220 240 269 303 238 250 232 217 190 167 168 153 149 157 165 168 164 166 168 168 168 171 175 174 176 184 184 182 188 201 205 199 203 205 214 215 213 214 210 208 208 199 200 205 198 206
222 225 190 168 221 263 266 274 293 323 109 126 125 134 160 157 165 167 169 165 164 166 171 171 170 172 178 182 182 186 187 190 197 200 199 203 207 212 209 206 209 216 214 211 203 209 213 204 211
178 179 102 127 181 254 269 258 244 221 219 209 175 175 196 164 163 164 163 162 159 161 164 162 162 171 179 179 186 184 188 193 191 188 200 204 205 200 198 207 209 219 222 220 213 215 215 210 217
280 133 130 140 166 178 246 262 233 199 200 191 195 191 190 173 168 163 155 155 149 142 145 153 160 161 171 177 178 176 191 198 189 192 204 202 197 195 203 208 212 222 227 223 214 220 217 217 225
185 191 155 160 236 182 198 262 272 197 192 180 192 195 187 178 168 160 153 145 141 149 152 158 164 170 177 174 169 176 183 187 187 198 205 198 200 207 209 205 216 227 230 225 216 226 227 221 224